| time (UTC) | temp F | wind direction | speed knots | gust knots | rain 1hr in | rain 24hr in | rain mn in | humidity % | barometer mb |
| 20260509005321 | 60 | 126 | 2.6 | 6.1 | 0.00 | 0.00 | 0.00 | 50 | 1010.1 |
| 20260509004322 | 59 | 106 | 1.7 | 3.5 | 0.00 | 0.00 | 0.00 | 54 | 1010.0 |
| 20260509003336 | 60 | 114 | 0.9 | 2.6 | 0.00 | 0.00 | 0.00 | 55 | 1009.9 |
| 20260509002314 | 60 | 122 | 0.9 | 2.6 | 0.00 | 0.00 | 0.00 | 56 | 1009.9 |
| 20260509001316 | 61 | 133 | 0.9 | 2.6 | 0.00 | 0.00 | 0.00 | 55 | 1009.7 |
| 20260509000359 | 62 | 133 | 1.7 | 2.6 | 0.00 | 0.00 | 0.00 | 50 | 1009.7 |
| 20260508235334 | 64 | 351 | 0.9 | 0.9 | 0.00 | 0.00 | 0.00 | 49 | 1009.5 |
| 20260508234338 | 66 | 351 | 0.0 | 1.7 | 0.00 | 0.00 | 0.00 | 45 | 1009.5 |
| 20260508233314 | 66 | 360 | 1.7 | 2.6 | 0.00 | 0.00 | 0.00 | 42 | 1009.5 |
| 20260508232318 | 67 | 351 | 2.6 | 5.2 | 0.00 | 0.00 | 0.00 | 41 | 1009.5 |
| 20260508231315 | 67 | 351 | 1.7 | 4.3 | 0.00 | 0.00 | 0.00 | 42 | 1009.5 |
| 20260508230339 | 67 | 302 | 2.6 | 4.3 | 0.00 | 0.00 | 0.00 | 40 | 1009.5 |
| 20260508225359 | 65 | 300 | 0.9 | 1.7 | 0.00 | 0.00 | 0.00 | 48 | 1009.5 |
| 20260508224338 | 66 | 301 | 0.9 | 4.3 | 0.00 | 0.00 | 0.00 | 42 | 1009.5 |
| 20260508223335 | 66 | 323 | 2.6 | 5.2 | 0.00 | 0.00 | 0.00 | 42 | 1009.6 |
| 20260508222337 | 66 | 331 | 1.7 | 5.2 | 0.00 | 0.00 | 0.00 | 42 | 1009.5 |
| 20260508221335 | 66 | 307 | 3.5 | 7.8 | 0.00 | 0.00 | 0.00 | 41 | 1009.6 |
| 20260508220339 | 66 | 292 | 3.5 | 8.7 | 0.00 | 0.00 | 0.00 | 40 | 1009.7 |
| 20260508215316 | 66 | 289 | 2.6 | 8.7 | 0.00 | 0.00 | 0.00 | 41 | 1009.6 |
| 20260508214334 | 66 | 289 | 3.5 | 7.8 | 0.00 | 0.00 | 0.00 | 39 | 1009.6 |
| 20260508213358 | 66 | 330 | 3.5 | 8.7 | 0.00 | 0.00 | 0.00 | 39 | 1009.7 |
| 20260508212350 | 66 | 310 | 3.5 | 13.0 | 0.00 | 0.00 | 0.00 | 38 | 1009.7 |
| 20260508211316 | 66 | 301 | 4.3 | 10.4 | 0.00 | 0.00 | 0.00 | 36 | 1009.8 |
| 20260508210340 | 67 | 296 | 3.5 | 11.3 | 0.00 | 0.00 | 0.00 | 35 | 1009.7 |
| 20260508205318 | 67 | 284 | 2.6 | 10.4 | 0.00 | 0.00 | 0.00 | 36 | 1009.6 |
| 20260508204320 | 67 | 286 | 6.1 | 8.7 | 0.00 | 0.00 | 0.00 | 35 | 1009.6 |
| 20260508203340 | 67 | 246 | 2.6 | 7.8 | 0.00 | 0.00 | 0.00 | 36 | 1009.7 |
| 20260508202316 | 68 | 246 | 3.5 | 8.7 | 0.00 | 0.00 | 0.00 | 36 | 1009.8 |
| 20260508201353 | 69 | 300 | 4.3 | 11.3 | 0.00 | 0.00 | 0.00 | 33 | 1010.0 |
| 20260508200334 | 71 | 217 | 7.0 | 12.2 | 0.00 | 0.00 | 0.00 | 32 | 1009.9 |
| 20260508195334 | 70 | 309 | 4.3 | 14.8 | 0.00 | 0.00 | 0.00 | 33 | 1009.7 |
| 20260508194317 | 71 | 279 | 6.1 | 13.9 | 0.00 | 0.00 | 0.00 | 32 | 1009.9 |
| 20260508193319 | 70 | 296 | 3.5 | 12.2 | 0.00 | 0.00 | 0.00 | 35 | 1010.0 |
| 20260508192341 | 69 | 261 | 6.1 | 10.4 | 0.00 | 0.00 | 0.00 | 33 | 1010.3 |
| 20260508191327 | 67 | 244 | 4.3 | 13.9 | 0.00 | 0.00 | 0.00 | 35 | 1010.3 |
| 20260508190326 | 67 | 271 | 3.5 | 8.7 | 0.00 | 0.00 | 0.00 | 36 | 1010.5 |
| 20260508185351 | 67 | 236 | 5.2 | 13.9 | 0.00 | 0.00 | 0.00 | 33 | 1010.7 |
| 20260508184316 | 67 | 261 | 4.3 | 19.1 | 0.00 | 0.00 | 0.00 | 34 | 1010.7 |
| 20260508183315 | 69 | 175 | 6.1 | 12.2 | 0.00 | 0.00 | 0.00 | 33 | 1010.7 |
| 20260508182336 | 68 | 180 | 7.0 | 13.9 | 0.00 | 0.00 | 0.00 | 37 | 1010.8 |
| 20260508181324 | 70 | 229 | 5.2 | 12.2 | 0.00 | 0.00 | 0.00 | 35 | 1010.9 |
| 20260508180350 | 68 | 275 | 5.2 | 16.5 | 0.00 | 0.00 | 0.00 | 34 | 1011.0 |
| 20260508175330 | 68 | 230 | 7.8 | 13.9 | 0.00 | 0.00 | 0.00 | 35 | 1011.2 |
| 20260508174338 | 69 | 275 | 6.1 | 12.2 | 0.00 | 0.00 | 0.00 | 35 | 1011.3 |
| 20260508173314 | 66 | 288 | 7.8 | 15.6 | 0.00 | 0.00 | 0.00 | 35 | 1011.4 |
| 20260508172313 | 69 | 232 | 4.3 | 13.0 | 0.00 | 0.00 | 0.00 | 35 | 1011.3 |
| 20260508171328 | 69 | 289 | 7.8 | 12.2 | 0.00 | 0.00 | 0.00 | 37 | 1011.6 |
| 20260508170331 | 67 | 217 | 3.5 | 15.6 | 0.00 | 0.00 | 0.00 | 37 | 1011.7 |
| 20260508165330 | 67 | 296 | 6.1 | 15.6 | 0.00 | 0.00 | 0.00 | 36 | 1011.9 |
| 20260508164317 | 65 | 296 | 7.0 | 12.2 | 0.00 | 0.00 | 0.00 | 40 | 1012.1 |
| 20260508163316 | 65 | 234 | 4.3 | 13.9 | 0.00 | 0.00 | 0.00 | 40 | 1012.1 |
| 20260508162318 | 65 | 258 | 4.3 | 9.6 | 0.00 | 0.00 | 0.00 | 39 | 1012.2 |
| 20260508161316 | 66 | 212 | 6.1 | 14.8 | 0.00 | 0.00 | 0.00 | 39 | 1012.2 |
| 20260508160317 | 66 | 248 | 6.1 | 14.8 | 0.00 | 0.00 | 0.00 | 38 | 1012.4 |
| 20260508155314 | 64 | 277 | 4.3 | 14.8 | 0.00 | 0.00 | 0.00 | 38 | 1012.4 |
| 20260508154334 | 66 | 273 | 4.3 | 12.2 | 0.00 | 0.00 | 0.00 | 40 | 1012.5 |
| 20260508153321 | 64 | 262 | 8.7 | 13.0 | 0.00 | 0.00 | 0.00 | 39 | 1012.7 |
| 20260508152313 | 64 | 295 | 6.1 | 12.2 | 0.00 | 0.00 | 0.00 | 38 | 1012.8 |
| 20260508151315 | 63 | 273 | 7.0 | 12.2 | 0.00 | 0.00 | 0.00 | 39 | 1012.8 |
| 20260508150326 | 63 | 255 | 5.2 | 14.8 | 0.00 | 0.00 | 0.00 | 41 | 1012.9 |
| 20260508145337 | 63 | 285 | 9.6 | 17.4 | 0.00 | 0.00 | 0.00 | 40 | 1013.0 |
| 20260508144317 | 63 | 211 | 6.1 | 13.9 | 0.00 | 0.00 | 0.00 | 43 | 1013.1 |
| 20260508143319 | 61 | 281 | 4.3 | 15.6 | 0.00 | 0.00 | 0.00 | 44 | 1013.1 |
| 20260508142312 | 61 | 299 | 6.1 | 11.3 | 0.00 | 0.00 | 0.00 | 44 | 1013.2 |
| 20260508141315 | 61 | 234 | 4.3 | 11.3 | 0.00 | 0.00 | 0.00 | 45 | 1013.3 |
| 20260508140336 | 61 | 241 | 6.1 | 12.2 | 0.00 | 0.00 | 0.00 | 46 | 1013.3 |
| 20260508135333 | 59 | 175 | 5.2 | 9.6 | 0.00 | 0.00 | 0.00 | 52 | 1013.4 |
| 20260508134353 | 59 | 219 | 4.3 | 7.8 | 0.00 | 0.00 | 0.00 | 51 | 1013.5 |
| 20260508133336 | 57 | 215 | 4.3 | 7.0 | 0.00 | 0.00 | 0.00 | 55 | 1013.6 |
| 20260508132313 | 55 | 205 | 4.3 | 7.8 | 0.00 | 0.00 | 0.00 | 57 | 1013.7 |
| 20260508131319 | 56 | 180 | 4.3 | 9.6 | 0.00 | 0.00 | 0.00 | 58 | 1013.8 |
| 20260508130336 | 56 | 215 | 4.3 | 8.7 | 0.00 | 0.00 | 0.00 | 55 | 1013.8 |
| 20260508125336 | 55 | 265 | 3.5 | 10.4 | 0.00 | 0.00 | 0.00 | 55 | 1013.8 |
| 20260508124338 | 54 | 201 | 5.2 | 8.7 | 0.00 | 0.00 | 0.00 | 57 | 1013.9 |
| 20260508123313 | 53 | 215 | 2.6 | 5.2 | 0.00 | 0.00 | 0.00 | 63 | 1013.8 |
| 20260508122338 | 51 | 150 | 2.6 | 5.2 | 0.00 | 0.00 | 0.00 | 64 | 1013.8 |
| 20260508121316 | 50 | 223 | 2.6 | 7.8 | 0.00 | 0.00 | 0.00 | 64 | 1013.8 |
| 20260508120345 | 50 | 193 | 3.5 | 8.7 | 0.00 | 0.00 | 0.00 | 63 | 1013.7 |
| 20260508115314 | 50 | 185 | 4.3 | 8.7 | 0.00 | 0.00 | 0.00 | 69 | 1013.7 |
| 20260508114338 | 46 | 175 | 4.3 | 7.0 | 0.00 | 0.00 | 0.00 | 81 | 1013.7 |
| 20260508113332 | 43 | 186 | 1.7 | 4.3 | 0.00 | 0.00 | 0.00 | 87 | 1013.3 |
| 20260508112312 | 41 | 84 | 0.0 | 1.7 | 0.00 | 0.00 | 0.00 | 86 | 1013.4 |
| 20260508111317 | 40 | 84 | 0.0 | 0.9 | 0.00 | 0.00 | 0.00 | 86 | 1013.3 |
| 20260508110351 | 39 | 84 | 0.0 | 0.9 | 0.00 | 0.00 | 0.00 | 86 | 1013.1 |
| 20260508105336 | 39 | 84 | 0.0 | 1.7 | 0.00 | 0.00 | 0.00 | 86 | 1013.0 |
| 20260508104312 | 38 | 84 | 0.0 | 0.9 | 0.00 | 0.00 | 0.00 | 85 | 1012.9 |
| 20260508103337 | 38 | 84 | 0.0 | 0.0 | 0.00 | 0.00 | 0.00 | 85 | 1012.8 |
| 20260508102312 | 38 | 84 | 0.0 | 1.7 | 0.00 | 0.00 | 0.00 | 84 | 1012.7 |
| 20260508101335 | 38 | 84 | 0.0 | 0.0 | 0.00 | 0.00 | 0.00 | 83 | 1012.6 |
| 20260508100314 | 38 | 84 | 0.0 | 0.9 | 0.00 | 0.00 | 0.00 | 82 | 1012.6 |
| 20260508095312 | 39 | 84 | 0.0 | 0.0 | 0.00 | 0.00 | 0.00 | 81 | 1012.4 |
| 20260508094311 | 39 | 84 | 0.0 | 0.9 | 0.00 | 0.00 | 0.00 | 81 | 1012.3 |
| 20260508093334 | 40 | 84 | 0.0 | 1.7 | 0.00 | 0.00 | 0.00 | 82 | 1012.3 |
| 20260508092317 | 39 | 84 | 1.7 | 1.7 | 0.00 | 0.00 | 0.00 | 82 | 1012.4 |
| 20260508091333 | 39 | 84 | 0.0 | 1.7 | 0.00 | 0.00 | 0.00 | 81 | 1012.5 |
| 20260508090321 | 40 | 84 | 0.0 | 0.0 | 0.00 | 0.00 | 0.00 | 79 | 1012.4 |
| 20260508085326 | 41 | 84 | 0.0 | 0.0 | 0.00 | 0.00 | 0.00 | 78 | 1012.3 |
| 20260508084311 | 41 | 84 | 0.0 | 0.9 | 0.00 | 0.00 | 0.00 | 76 | 1012.1 |
| 20260508083340 | 41 | 84 | 0.0 | 0.0 | 0.00 | 0.00 | 0.00 | 76 | 1012.0 |
| 20260508082335 | 42 | 84 | 0.0 | 0.9 | 0.00 | 0.00 | 0.00 | 75 | 1011.9 |
| 20260508081323 | 42 | 84 | 0.9 | 0.9 | 0.00 | 0.00 | 0.00 | 74 | 1012.0 |
| 20260508080319 | 43 | 84 | 0.0 | 0.0 | 0.00 | 0.00 | 0.00 | 73 | 1012.1 |
| 20260508075321 | 43 | 84 | 0.0 | 1.7 | 0.00 | 0.00 | 0.00 | 72 | 1012.0 |
| 20260508074345 | 44 | 84 | 0.9 | 1.7 | 0.00 | 0.00 | 0.00 | 71 | 1012.0 |
| 20260508073337 | 44 | 84 | 0.9 | 1.7 | 0.00 | 0.00 | 0.00 | 70 | 1011.9 |
| 20260508072316 | 45 | 84 | 0.0 | 2.6 | 0.00 | 0.00 | 0.00 | 69 | 1011.8 |
| 20260508071336 | 45 | 55 | 0.9 | 2.6 | 0.00 | 0.00 | 0.00 | 70 | 1011.7 |
| 20260508070334 | 45 | 61 | 1.7 | 4.3 | 0.00 | 0.00 | 0.00 | 70 | 1011.6 |
| 20260508065318 | 46 | 69 | 0.0 | 1.7 | 0.00 | 0.00 | 0.00 | 67 | 1011.7 |
| 20260508064339 | 47 | 67 | 0.0 | 1.7 | 0.00 | 0.00 | 0.00 | 65 | 1011.7 |
| 20260508063340 | 48 | 61 | 0.0 | 1.7 | 0.00 | 0.00 | 0.00 | 63 | 1011.7 |
| 20260508062317 | 49 | 15 | 0.9 | 3.5 | 0.00 | 0.00 | 0.00 | 61 | 1011.7 |
| 20260508061339 | 49 | 5 | 1.7 | 7.8 | 0.00 | 0.00 | 0.00 | 60 | 1011.6 |
| 20260508060337 | 49 | 351 | 2.6 | 5.2 | 0.00 | 0.00 | 0.00 | 61 | 1011.6 |
| 20260508055329 | 49 | 10 | 0.9 | 3.5 | 0.00 | 0.00 | 0.00 | 61 | 1011.5 |
| 20260508054340 | 49 | 360 | 1.7 | 7.8 | 0.00 | 0.00 | 0.00 | 61 | 1011.5 |
| 20260508053339 | 48 | 17 | 2.6 | 7.0 | 0.00 | 0.00 | 0.00 | 62 | 1011.4 |
| 20260508052340 | 48 | 320 | 0.9 | 2.6 | 0.00 | 0.00 | 0.00 | 61 | 1011.3 |
| 20260508051318 | 48 | 136 | 0.9 | 1.7 | 0.00 | 0.00 | 0.00 | 62 | 1011.2 |
| 20260508050316 | 49 | 123 | 0.9 | 2.6 | 0.00 | 0.00 | 0.00 | 61 | 1011.0 |
| 20260508045330 | 50 | 80 | 0.9 | 1.7 | 0.00 | 0.00 | 0.00 | 59 | 1010.9 |
| 20260508044315 | 50 | 96 | 0.9 | 1.7 | 0.00 | 0.00 | 0.00 | 58 | 1010.8 |
| 20260508043341 | 50 | 351 | 1.7 | 3.5 | 0.00 | 0.00 | 0.00 | 57 | 1010.6 |
| 20260508042334 | 51 | 220 | 0.0 | 2.6 | 0.00 | 0.00 | 0.00 | 59 | 1010.5 |
| 20260508041338 | 51 | 161 | 0.9 | 1.7 | 0.00 | 0.00 | 0.00 | 58 | 1010.3 |
| 20260508040323 | 51 | 152 | 0.9 | 2.6 | 0.00 | 0.00 | 0.00 | 57 | 1010.1 |
| 20260508035322 | 52 | 149 | 1.7 | 2.6 | 0.00 | 0.00 | 0.00 | 56 | 1009.9 |
| 20260508034317 | 51 | 169 | 0.9 | 1.7 | 0.00 | 0.00 | 0.00 | 56 | 1009.9 |
| 20260508033341 | 51 | 169 | 0.9 | 1.7 | 0.00 | 0.00 | 0.00 | 57 | 1009.8 |
| 20260508032315 | 51 | 169 | 0.0 | 1.7 | 0.00 | 0.00 | 0.00 | 57 | 1009.6 |
| 20260508031317 | 52 | 157 | 0.9 | 2.6 | 0.00 | 0.00 | 0.00 | 56 | 1009.6 |
| 20260508030319 | 52 | 157 | 0.9 | 1.7 | 0.00 | 0.00 | 0.00 | 55 | 1009.6 |
| 20260508025344 | 53 | 185 | 1.7 | 1.7 | 0.00 | 0.00 | 0.00 | 56 | 1009.5 |
| 20260508024332 | 53 | 311 | 0.0 | 1.7 | 0.00 | 0.00 | 0.00 | 54 | 1009.5 |
| 20260508023336 | 54 | 294 | 0.0 | 1.7 | 0.00 | 0.00 | 0.00 | 53 | 1009.4 |
| 20260508022320 | 54 | 294 | 0.0 | 1.7 | 0.00 | 0.00 | 0.00 | 52 | 1009.4 |
| 20260508021332 | 55 | 294 | 0.0 | 0.9 | 0.00 | 0.00 | 0.00 | 50 | 1009.3 |
| 20260508020400 | 56 | 302 | 0.0 | 4.3 | 0.00 | 0.00 | 0.00 | 49 | 1009.1 |
| 20260508015319 | 57 | 314 | 1.7 | 4.3 | 0.00 | 0.00 | 0.00 | 48 | 1009.1 |
| 20260508014314 | 57 | 339 | 2.6 | 3.5 | 0.00 | 0.00 | 0.00 | 46 | 1009.0 |
| 20260508013328 | 58 | 326 | 3.5 | 5.2 | 0.00 | 0.00 | 0.00 | 45 | 1008.8 |
| 20260508012334 | 58 | 322 | 0.9 | 5.2 | 0.00 | 0.00 | 0.00 | 45 | 1008.6 |
| 20260508011338 | 58 | 302 | 2.6 | 3.5 | 0.00 | 0.00 | 0.00 | 46 | 1008.5 |
| 20260508010339 | 59 | 47 | 0.0 | 2.6 | 0.00 | 0.00 | 0.00 | 46 | 1008.3 |